Change the Weather History Date:

Monday, May 7, 2012

  Actual Average Record
Temperature  
Mean Temperature 58 °F -  
Max Temperature 68 °F 69 °F 91 °F (2000)
Min Temperature 48 °F 48 °F 39 °F (1997)
Degree Days  
Heating Degree Days 7    
Growing Degree Days 8 (Base 50)    
Moisture  
Dew Point 46 °F    
Average Humidity 71    
Maximum Humidity 93    
Minimum Humidity 45    
Precipitation  
Precipitation 0.00 in - - ()
Sea Level Pressure  
Sea Level Pressure 30.12 in    
Wind  
Wind Speed 3 mph (SE)    
Max Wind Speed 10 mph    
Max Gust Speed 16 mph    
Visibility 10 miles    
Events Rain    
Averages and records for this station are not official NWS values.
T = Trace of Precipitation, MM = Missing Value Source: NWS Daily Summary

Daily Weather History Graph

Daily Weather History Graph

Search for Another Location

Airport or City:

Trip Planner

Search our weather history database for the weather conditions in past years. The results will help you decide how hot, cold, wet, or windy it might be!

Date:

Astronomy

May. 07, 2012 Rise Set
Actual Time 5:52 AM EDT 8:01 PM EDT
Civil Twilight 5:22 AM EDT 8:31 PM EDT
Nautical Twilight 4:45 AM EDT 9:08 PM EDT
Astronomical Twilight 4:05 AM EDT 9:48 PM EDT
Moon 10:10 PM EDT (5/7) 6:55 AM EDT (5/7)
Length of Visible Light 15h 09m
Length of Day
14h 09m
Waning Gibbous, 97% of the Moon is Illuminated
May 7
Waning Gibbous
May 12
Last Quarter
May 20
New
May 28
First Quarter
Jun 4
Full

Hourly Weather History & Observations

Time (EDT) Temp. Dew Point Humidity Pressure Visibility Wind Dir Wind Speed Gust Speed Precip Events Conditions
12:54 AM 51.1 °F 45.0 °F 80% 30.12 in 10.0 mi Calm Calm - N/A   Clear
1:54 AM 51.1 °F 46.0 °F 83% 30.12 in 10.0 mi SE 3.5 mph - N/A   Clear
2:54 AM 51.1 °F 46.0 °F 83% 30.11 in 10.0 mi Calm Calm - N/A   Clear
3:54 AM 48.9 °F 44.1 °F 83% 30.11 in 10.0 mi Calm Calm - N/A   Clear
4:51 AM 48.2 °F 46.4 °F 93% 30.12 in 10.0 mi Calm Calm - N/A   Mostly Cloudy
4:54 AM 48.9 °F 46.0 °F 90% 30.12 in 10.0 mi Calm Calm - N/A   Mostly Cloudy
5:13 AM 50.0 °F 46.4 °F 87% 30.11 in 10.0 mi Calm Calm - N/A   Scattered Clouds
5:54 AM 50.0 °F 46.9 °F 89% 30.12 in 10.0 mi Calm Calm - N/A   Clear
6:54 AM 51.1 °F 48.0 °F 89% 30.12 in 10.0 mi ESE 4.6 mph - N/A   Partly Cloudy
7:16 AM 51.8 °F 48.2 °F 88% 30.13 in 9.0 mi SSE 3.5 mph - N/A   Scattered Clouds
7:54 AM 52.0 °F 48.0 °F 86% 30.13 in 10.0 mi SE 5.8 mph - N/A   Scattered Clouds
8:12 AM 53.6 °F 48.2 °F 82% 30.14 in 10.0 mi ESE 3.5 mph - N/A   Mostly Cloudy
8:22 AM 53.6 °F 48.2 °F 82% 30.15 in 10.0 mi SE 3.5 mph - N/A   Mostly Cloudy
8:54 AM 54.0 °F 48.9 °F 83% 30.15 in 10.0 mi Calm Calm - N/A   Overcast
9:06 AM 53.6 °F 50.0 °F 88% 30.15 in 10.0 mi SE 3.5 mph - N/A   Overcast
9:54 AM 57.0 °F 50.0 °F 77% 30.15 in 10.0 mi SE 5.8 mph - N/A   Overcast
10:54 AM 60.1 °F 51.1 °F 72% 30.14 in 10.0 mi ESE 4.6 mph - N/A   Mostly Cloudy
11:54 AM 64.9 °F 48.0 °F 54% 30.14 in 10.0 mi ESE 5.8 mph - N/A   Overcast
12:54 PM 66.9 °F 48.0 °F 51% 30.13 in 10.0 mi SSE 8.1 mph - N/A   Mostly Cloudy
1:54 PM 68.0 °F 48.0 °F 49% 30.12 in 10.0 mi Variable 3.5 mph - N/A   Overcast
2:54 PM 66.9 °F 45.0 °F 45% 30.11 in 10.0 mi South 6.9 mph - N/A   Overcast
3:54 PM 66.0 °F 45.0 °F 47% 30.11 in 10.0 mi SSE 8.1 mph - 0.00 in   Overcast
4:54 PM 64.0 °F 45.0 °F 50% 30.11 in 10.0 mi Variable 6.9 mph - N/A   Overcast
5:54 PM 61.0 °F 44.1 °F 54% 30.11 in 10.0 mi SSE 10.4 mph 16.1 mph 0.00 in Rain Light Rain
6:54 PM 59.0 °F 39.0 °F 48% 30.11 in 10.0 mi SE 10.4 mph - 0.00 in   Overcast
7:54 PM 57.9 °F 39.9 °F 51% 30.10 in 10.0 mi SE 5.8 mph - N/A   Overcast
8:54 PM 57.9 °F 43.0 °F 58% 30.10 in 10.0 mi SSE 4.6 mph - N/A   Overcast
9:54 PM 57.2 °F 44.6 °F 63% 30.11 in 10.0 mi SE 4.6 mph - N/A   Overcast
10:54 PM 57.0 °F 43.0 °F 59% 30.11 in 10.0 mi South 5.8 mph - N/A   Overcast
11:54 PM 57.0 °F 43.0 °F 59% 30.09 in 10.0 mi Calm Calm - N/A   Overcast